Tracking 25710 objects as of 5-Jul-2022
HD Live streaming from Space Station
objects crossing your sky now

FENGYUN 1C DEB

Track FENGYUN 1C DEB now!
10-day predictions


NORAD ID: 32343
Int'l Code: 1999-025CYL
Perigee: 729.7 km
Apogee: 959.3 km
Inclination: 98.6 °
Period: 101.7 minutes
Semi major axis: 7215 km
RCS: 0.0118 m2 (small)
Launch date: May 10, 1999
Source: People's Republic of China (PRC)
Launch site: Taiyaun Space Center, China (TSC)

Note: This is SATELLITE DEBRIS
aabbcc
Your satellite tracking list
Your tracking list is empty




NASA's NSSDC Master Catalog

Two Line Element Set (TLE):
1 32343U 99025CYL 22185.49657132  .00000280  00000-0  14282-3 0  9995
2 32343  98.5635 198.4871 0159145 153.1700 207.7818 14.16457257468961
Source of the keplerian elements: AFSPC